Location: Unspecified
(0.0000°N, 0.0000°E)
Time: 07:20:40
(UTC+00:00)

Vanguard 2 Rocket - Pass Details

Date: 04 October 2023
Orbit: 552 x 3312 km, 32.9° (Epoch: 06 December)

Event Time Altitude Azimuth Distance (km) Brightness Sun altitude
Rises 16:48:36 0° 307° (NW) 7,234 12.3 15.0°
Reaches altitude 10° 16:53:46 10° 308° (NW) 6,063 11.9 13.7°
Maximum altitude 17:12:00 83° 35° (NE) 2,315 9.1 9.2°
Drops below altitude 10° 17:22:37 10° 122° (ESE) 3,773 9.6 6.5°
Sets 17:25:04 0° 123° (ESE) 4,470 10.0 5.9°
